Weather in Lyaskovichi

Belarus     52°06′52″N   28°09′17″E
temp.,
°C
wind,
m/s
gust,
m/s
humid.,
%
clouds,
%
prec.,
mm/h
press.,
hPa
HPBL,
m
18 may, tue
tue1800:00+13ne1194100 0.1 100216
03:00+11sse019575 0.2 100210
06:00+13s2498100 0.1 1001150
09:00+14se1294100 0.1 1002138
12:00+19se2368100 0.5 10011043
15:00+20ese3369100 2.8 10001025
18:00+17e3585100 2.1 999285
21:00+15wsw0189100 3.7 99911
19 may, wed
wed1900:00+14nnw369695 1.5 999149
03:00+13nnw389891 1.6 999323
06:00+12nw4998100 0.4 1000429
09:00+11nw4997100 0.9 1001470
12:00+11nw4897100 2.1 1003543
15:00+10nw4895100 3.4 1005616
18:00+11nw51295100 1.0 1006751
21:00+10nw4119597 1.1 1007614
20 may, thu
thu2000:00+9wnw41296100 0.0 1007541
03:00+9nw41293100 0.0 1007505
06:00+10nw41290100 0.0 1008538
09:00+13nw5876100 0.0 1008827
12:00+16nw5761100 0.2 10081491
15:00+17nnw4656100 0.3 10091791
18:00+17nnw355354 0.0 10091792
21:00+11nw228784 0.1 101125
21 may, fri
fri2100:00+10nw239275 0.0 101347
03:00+8nnw2495100 0.0 101490
06:00+8nnw2694100 0.0 1015155
09:00+13n347357 0.0 1016518
12:00+17nnw4454100 0.1 10161520
15:00+18nnw4442100 0.1 10161845
18:00+17n334726 0.0 10161655
21:00+11n23744 0.0 101737
22 may, sat
sat2200:00+9n22790 0.0 101711
03:00+7ene11816 0.0 101710
06:00+8se118067 0.0 101710
09:00+15sse225892 0.0 1017385
12:00+18sse3344100 0.0 10161506
15:00+19se344428 0.0 10151574
18:00+20sse4648100 0.0 10131564
21:00+14sse3675100 0.0 1013105